[[{"header":{"parameterUnit":"m.s-1","parameterCategory":1,"la1":30.2991,"la2":30.254,"lo1":-89.0895,"lo2":-89.0444,"dy":0.0017,"dx":0.0017,"nx":28,"ny":28,"refTime":"2025-09-11T09:00:00:Z","depth":0,"parameterNumber":2,"parameterNumberName":"U-component_of_WINDS"},"data":[0,0,0,0,0,0,0,0,0,0,0,0,0,0,0,0,0,0,0,0,0,0,0,0,0,0,0,0,0,0,0,0,0,0,0,0,0,0,0,0,0,0,0,0,0,0,0,0,0,0,0,0,0,0,0,0,0,0,-1.4153,-1.4153,0,-1.4152,-1.4152,-1.4152,-1.4123,-1.4122,-1.4121,-1.412,-1.4119,-1.4119,-1.412,0,0,0,0,0,0,0,0,0,0,0,0,0,-1.4132,-1.4133,-1.4153,-1.4153,-1.4153,-1.4152,-1.4152,-1.4151,-1.4123,-1.4122,-1.4121,-1.412,-1.4118,-1.4119,-1.412,0,0,0,0,0,0,0,0,0,0,0,0,0,-1.4137,-1.4133,-1.4153,-1.4139,-1.4137,-1.4152,-1.4152,-1.4151,-1.4123,-1.4122,-1.4121,-1.412,-1.4118,-1.4119,-1.412,-1.4148,0,0,-1.4123,-1.4123,0,0,0,0,0,0,0,0,-1.4137,-1.4138,-1.4141,-1.414,-1.4138,-1.4136,-1.4143,-1.415,-1.4123,-1.4128,-1.412,-1.4119,-1.4125,-1.4126,-1.4128,-1.4148,-1.4148,-1.4123,-1.4124,-1.4124,-1.4124,0,0,0,0,0,0,0,-1.4137,-1.4138,-1.4153,-1.4141,-1.4139,-1.4132,-1.4132,-1.4145,-1.4133,-1.4128,-1.4126,-1.4126,-1.4124,-1.4127,-1.4127,-1.4148,-1.4123,-1.4124,-1.4124,-1.4125,-1.4193,-1.4194,0,0,0,0,0,0,-1.4138,-1.4138,-1.4153,-1.4153,-1.4135,-1.4134,-1.4133,-1.4138,-1.4133,-1.4131,-1.4127,-1.4125,-1.4126,-1.4126,-1.4127,-1.4161,-1.4124,-1.4125,-1.4125,-1.4191,-1.4193,-1.4194,0,0,0,0,0,0,-1.4138,-1.414,-1.4153,-1.4145,-1.4146,-1.4135,-1.4141,-1.4138,-1.4141,-1.4132,-1.413,-1.4132,-1.4125,-1.4126,-1.4143,-1.416,-1.4125,-1.4126,-1.419,-1.4192,-1.4194,-1.4228,0,0,0,0,0,0,-1.4137,-1.414,-1.415,-1.4145,-1.4146,-1.4169,-1.4142,-1.4139,-1.4143,-1.414,-1.4136,-1.4134,-1.4124,-1.4142,-1.4144,-1.4161,-1.4127,-1.4188,-1.4191,-1.4193,-1.4225,-1.4231,-1.4235,0,0,0,0,0,-1.4137,-1.416,-1.4151,-1.4153,-1.4159,-1.417,-1.4171,-1.4158,-1.4144,-1.4155,-1.4149,-1.4134,-1.4158,-1.4144,-1.4146,-1.4164,-1.4187,-1.419,-1.4193,-1.4223,-1.423,-1.4235,0,0,0,0,0,0,-1.4167,-1.4159,-1.4149,-1.4171,-1.4171,-1.4165,-1.4178,-1.4166,-1.417,-1.4167,-1.4152,-1.4151,-1.4172,-1.4169,-1.4154,-1.4191,-1.417,-1.4174,-1.4192,-1.4199,-1.4204,-1.4204,-1.4128,0,0,0,0,0,-1.4176,-1.4185,-1.4178,-1.4198,-1.4198,-1.4188,-1.4192,-1.4183,-1.4183,-1.4183,-1.4179,-1.418,-1.4187,-1.4193,-1.4199,-1.4225,-1.4224,-1.4238,-1.4243,-1.4247,-1.425,-1.4265,-1.4272,-1.4203,-1.4203,-1.4203,0,0,-1.4195,-1.4192,-1.4198,-1.4204,-1.4203,-1.4214,-1.4189,-1.42,-1.4208,-1.4185,-1.4202,-1.4199,-1.4198,-1.4221,-1.423,-1.4219,-1.4269,-1.4251,-1.4254,-1.4255,-1.4269,-1.4275,-1.4281,-1.4205,-1.4205,-1.4205,0,0,-1.4235,-1.4233,-1.425,-1.425,-1.425,-1.4243,-1.4247,-1.4243,-1.424,-1.4257,-1.424,-1.4249,-1.4262,-1.4263,-1.4266,-1.4308,-1.4295,-1.431,-1.4337,-1.4352,-1.4357,-1.4362,-1.4378,-1.4384,-1.4313,-1.4313,-1.4313,0,-1.4259,-1.4274,-1.426,-1.4274,-1.4277,-1.4257,-1.4275,-1.4275,-1.4277,-1.428,-1.4268,-1.4285,-1.4283,-1.4306,-1.4317,-1.4318,-1.4324,-1.4311,-1.4357,-1.4362,-1.4366,-1.4381,-1.4387,-1.4315,-1.4315,-1.4315,-1.4315,0,-1.4303,-1.4314,-1.4328,-1.4331,-1.4336,-1.4351,-1.4341,-1.4347,-1.4338,-1.4333,-1.4351,-1.4348,-1.4354,-1.4359,-1.4349,-1.4381,-1.4374,-1.436,-1.4338,-1.4375,-1.4389,-1.4395,-1.4318,-1.4317,-1.4317,-1.4316,0,0,-1.4362,-1.4358,-1.4364,-1.4365,-1.4364,-1.4372,-1.4387,-1.4394,-1.44,-1.4402,-1.4415,-1.4427,-1.4415,-1.4417,-1.4408,-1.442,-1.4456,-1.4405,-1.4404,-1.4415,-1.4492,-1.4503,-1.451,-1.4447,-1.4448,-1.4448,-1.4492,0,-1.4402,-1.4428,-1.4417,-1.4443,-1.4454,-1.4436,-1.4449,-1.445,-1.4445,-1.4454,-1.4449,-1.4459,-1.444,-1.4442,-1.4453,-1.4449,-1.4471,-1.4445,-1.4459,-1.446,-1.4461,-1.4517,-1.4529,-1.457,-1.4497,-1.4498,-1.4499,0,-1.4452,-1.4457,-1.4485,-1.4483,-1.4487,-1.4499,-1.4505,-1.4513,-1.4514,-1.451,-1.4514,-1.4502,-1.4517,-1.4495,-1.4517,-1.45,-1.4505,-1.4503,-1.4505,-1.4506,-1.4482,-1.4522,-1.4583,-1.459,-1.4507,-1.4507,-1.4506,0,-1.4493,-1.4507,-1.4526,-1.4528,-1.4526,-1.4535,-1.4534,-1.4534,-1.4539,-1.4544,-1.4548,-1.4554,-1.4558,-1.4564,-1.4554,-1.4539,-1.4578,-1.4555,-1.4576,-1.4576,-1.4585,-1.4585,-1.465,-1.4587,-1.4587,-1.4586,-1.4586,0,-1.4539,-1.4558,-1.4545,-1.4557,-1.4577,-1.4564,-1.4585,-1.4582,-1.4583,-1.4594,-1.4578,-1.4589,-1.4575,-1.4585,-1.4578,-1.4598,-1.4599,-1.4597,-1.4595,-1.4599,-1.46,-1.4603,-1.46,-1.4588,-1.4588,-1.4587,-1.4587,0,-1.459,-1.4581,-1.4601,-1.4598,-1.4598,-1.4613,-1.461,-1.4621,-1.4616,-1.4631,-1.4634,-1.4626,-1.4637,-1.4628,-1.4638,-1.4633,-1.466,-1.4653,-1.466,-1.4658,-1.468,-1.4679,-1.475,-1.476,-1.469,-1.469,-1.4691,0,-1.462,-1.4634,-1.4633,-1.4639,-1.464,-1.4651,-1.4656,-1.4645,-1.4651,-1.4654,-1.4665,-1.4675,-1.4682,-1.4701,-1.4696,-1.4704,-1.4698,-1.4723,-1.4699,-1.4704,-1.47,-1.47,-1.4702,-1.4728,-1.4729,-1.4729,-1.473,0,-1.4676,-1.4671,-1.468,-1.4687,-1.4695,-1.47,-1.4704,-1.471,-1.4698,-1.4707,-1.4718,-1.4724,-1.4735,-1.4745,-1.4752,-1.4752,-1.474,-1.4737,-1.4743,-1.4748,-1.4751,-1.4751,-1.4674,-1.4736,-1.4735,-1.4735,-1.4734,-1.4734,-1.4718,-1.473,-1.4731,-1.4741,-1.4743,-1.4748,-1.4759,-1.4755,-1.4765,-1.4773,-1.4766,-1.478,-1.4782,-1.479,-1.4791,-1.4802,-1.4792,-1.48,-1.4802,-1.4804,-1.4808,-1.4749,-1.4803,-1.4803,-1.4803,-1.4803,-1.4803,0,-1.4773,-1.4774,-1.4783,-1.479,-1.4799,-1.4786,-1.479,-1.4798,-1.4811,-1.4814,-1.4822,-1.4835,-1.4846,-1.4842,-1.4851,-1.4861,-1.4856,-1.4864,-1.4864,-1.4864,-1.4816,-1.4811,-1.4868,-1.4868,-1.4868,-1.4868,-1.4868,-1.4868,-1.4803,-1.4824,-1.482,-1.4841,-1.4841,-1.4855,-1.4859,-1.4864,-1.4866,-1.4882,-1.4891,-1.4888,-1.4889,-1.4898,-1.4908,-1.4906,-1.4911,-1.4922,-1.4919,-1.4874,-1.4867,-1.4861,-1.4856,-1.4923,-1.4923,-1.4966,-1.4966,-1.4967]},{"header":{"parameterUnit":"m.s-1","parameterCategory":1,"la1":30.2991,"la2":30.254,"lo1":-89.0895,"lo2":-89.0444,"dy":0.0017,"dx":0.0017,"nx":28,"ny":28,"refTime":"2025-09-11T09:00:00:Z","depth":0,"parameterNumber":3,"parameterNumberName":"V-component_of_WINDS"},"data":[0,0,0,0,0,0,0,0,0,0,0,0,0,0,0,0,0,0,0,0,0,0,0,0,0,0,0,0,0,0,0,0,0,0,0,0,0,0,0,0,0,0,0,0,0,0,0,0,0,0,0,0,0,0,0,0,0,0,-1.8534,-1.8534,0,-1.8521,-1.8521,-1.8521,-1.8489,-1.8488,-1.8487,-1.8487,-1.8473,-1.8473,-1.8473,0,0,0,0,0,0,0,0,0,0,0,0,0,-1.853,-1.853,-1.8534,-1.8534,-1.8534,-1.8521,-1.8521,-1.8521,-1.8489,-1.8488,-1.8487,-1.8487,-1.8473,-1.8473,-1.8473,0,0,0,0,0,0,0,0,0,0,0,0,0,-1.8526,-1.853,-1.8534,-1.8516,-1.8514,-1.8521,-1.8521,-1.8521,-1.8489,-1.8488,-1.8487,-1.8486,-1.8472,-1.8473,-1.8473,-1.8496,0,0,-1.8474,-1.8474,0,0,0,0,0,0,0,0,-1.8526,-1.8526,-1.8519,-1.8517,-1.8515,-1.8506,-1.8514,-1.8512,-1.8489,-1.8499,-1.8487,-1.8486,-1.8484,-1.8484,-1.8483,-1.8495,-1.8494,-1.8474,-1.8475,-1.8475,-1.8475,0,0,0,0,0,0,0,-1.8527,-1.8526,-1.8529,-1.8519,-1.8517,-1.8509,-1.8507,-1.8514,-1.8497,-1.8498,-1.8495,-1.8494,-1.8483,-1.8483,-1.8483,-1.8494,-1.8474,-1.8475,-1.8475,-1.8475,-1.8525,-1.8526,0,0,0,0,0,0,-1.8529,-1.8527,-1.8529,-1.8528,-1.8519,-1.851,-1.8508,-1.851,-1.8497,-1.8494,-1.8495,-1.8493,-1.8483,-1.8482,-1.8482,-1.8509,-1.8475,-1.8475,-1.8475,-1.8524,-1.8525,-1.8526,0,0,0,0,0,0,-1.853,-1.853,-1.853,-1.8527,-1.8526,-1.8511,-1.8513,-1.851,-1.851,-1.8495,-1.8492,-1.8498,-1.8482,-1.8482,-1.8493,-1.8508,-1.8475,-1.8476,-1.8523,-1.8524,-1.8526,-1.8562,0,0,0,0,0,0,-1.853,-1.853,-1.8539,-1.8527,-1.8527,-1.8541,-1.8514,-1.851,-1.8511,-1.8508,-1.8497,-1.8495,-1.8481,-1.8493,-1.8493,-1.8508,-1.8476,-1.8521,-1.8523,-1.8525,-1.8559,-1.8565,-1.8569,0,0,0,0,0,-1.853,-1.8549,-1.8539,-1.854,-1.8537,-1.8542,-1.8541,-1.8526,-1.8512,-1.8521,-1.8511,-1.8495,-1.8506,-1.8494,-1.8495,-1.851,-1.852,-1.8523,-1.8525,-1.8557,-1.8564,-1.8569,0,0,0,0,0,0,-1.8561,-1.8547,-1.8536,-1.8552,-1.8549,-1.8536,-1.8547,-1.8533,-1.8533,-1.853,-1.851,-1.8508,-1.8523,-1.8517,-1.8504,-1.8531,-1.851,-1.8513,-1.8535,-1.8541,-1.8546,-1.8547,-1.8476,0,0,0,0,0,-1.857,-1.8576,-1.8563,-1.8578,-1.8577,-1.8562,-1.8564,-1.8552,-1.8548,-1.8546,-1.8537,-1.8533,-1.8535,-1.8537,-1.8539,-1.8558,-1.8556,-1.8569,-1.8574,-1.8578,-1.8581,-1.8592,-1.8598,-1.8535,-1.8534,-1.8534,0,0,-1.8589,-1.8582,-1.8586,-1.8585,-1.858,-1.8587,-1.8561,-1.8568,-1.8573,-1.8547,-1.8557,-1.8551,-1.8545,-1.8561,-1.8567,-1.8556,-1.8598,-1.8581,-1.8584,-1.8585,-1.8595,-1.8601,-1.8606,-1.8536,-1.8536,-1.8536,0,0,-1.8626,-1.8621,-1.8634,-1.8631,-1.8625,-1.8615,-1.8618,-1.8608,-1.8603,-1.8614,-1.8595,-1.8599,-1.8604,-1.8601,-1.86,-1.8637,-1.8623,-1.8638,-1.8664,-1.8675,-1.868,-1.8685,-1.8699,-1.8705,-1.8641,-1.8641,-1.8641,0,-1.865,-1.8659,-1.8642,-1.8651,-1.8652,-1.8629,-1.8642,-1.8639,-1.8634,-1.8635,-1.8623,-1.8629,-1.8623,-1.8639,-1.8648,-1.8648,-1.8651,-1.864,-1.8681,-1.8685,-1.8689,-1.8703,-1.8708,-1.8643,-1.8643,-1.8642,-1.8642,0,-1.8689,-1.8695,-1.8707,-1.8704,-1.8705,-1.8716,-1.8701,-1.8705,-1.8693,-1.8685,-1.8696,-1.8689,-1.8689,-1.8691,-1.868,-1.8706,-1.8699,-1.8684,-1.8663,-1.8697,-1.871,-1.8715,-1.8646,-1.8645,-1.8644,-1.8644,0,0,-1.8746,-1.8734,-1.8739,-1.8738,-1.873,-1.8735,-1.8745,-1.8746,-1.875,-1.8747,-1.8756,-1.8761,-1.8747,-1.8746,-1.8734,-1.8744,-1.8776,-1.8727,-1.8727,-1.8738,-1.8805,-1.8818,-1.8824,-1.8765,-1.8766,-1.8767,-1.8806,0,-1.8782,-1.88,-1.8786,-1.8806,-1.8813,-1.8791,-1.8801,-1.8797,-1.879,-1.8794,-1.8785,-1.879,-1.8771,-1.877,-1.8779,-1.877,-1.8789,-1.8767,-1.8774,-1.8775,-1.8778,-1.883,-1.8843,-1.888,-1.8811,-1.8812,-1.8812,0,-1.8827,-1.8828,-1.8849,-1.8841,-1.8844,-1.8852,-1.8853,-1.8857,-1.8852,-1.8846,-1.8846,-1.8831,-1.8841,-1.882,-1.8834,-1.8819,-1.8821,-1.8817,-1.8818,-1.882,-1.8796,-1.8834,-1.8892,-1.8898,-1.882,-1.8819,-1.8818,0,-1.8869,-1.8874,-1.8888,-1.8888,-1.8879,-1.8886,-1.8882,-1.8877,-1.8879,-1.8879,-1.888,-1.8881,-1.8882,-1.8883,-1.8869,-1.8855,-1.8885,-1.8862,-1.8881,-1.8882,-1.8889,-1.8889,-1.895,-1.8889,-1.8888,-1.8888,-1.8888,0,-1.8912,-1.8926,-1.8907,-1.8916,-1.8932,-1.8915,-1.8931,-1.8925,-1.8921,-1.8928,-1.8909,-1.8916,-1.8897,-1.8902,-1.8892,-1.8906,-1.8906,-1.8901,-1.8899,-1.8904,-1.8905,-1.8906,-1.8904,-1.889,-1.8889,-1.8889,-1.8889,0,-1.8961,-1.8949,-1.8963,-1.8954,-1.8952,-1.8964,-1.8956,-1.8963,-1.8955,-1.8964,-1.8966,-1.8952,-1.8958,-1.8944,-1.8947,-1.894,-1.896,-1.8953,-1.8962,-1.8961,-1.8981,-1.898,-1.9045,-1.9053,-1.8986,-1.8986,-1.8987,0,-1.899,-1.9001,-1.8993,-1.8997,-1.8995,-1.9001,-1.9003,-1.8987,-1.899,-1.8987,-1.8995,-1.8999,-1.9002,-1.9011,-1.9002,-1.9004,-1.8997,-1.902,-1.8997,-1.9003,-1.8999,-1.9,-1.9001,-1.9025,-1.9026,-1.9027,-1.9027,0,-1.9043,-1.9037,-1.9041,-1.9043,-1.9047,-1.9048,-1.9047,-1.9051,-1.9034,-1.9039,-1.9045,-1.9047,-1.9051,-1.9055,-1.9056,-1.9052,-1.9037,-1.9034,-1.9039,-1.9045,-1.9051,-1.905,-1.8977,-1.9033,-1.9032,-1.9032,-1.9032,-1.9031,-1.9084,-1.9093,-1.9089,-1.9095,-1.9093,-1.9094,-1.9101,-1.9094,-1.9098,-1.9101,-1.9091,-1.9099,-1.9095,-1.9095,-1.9093,-1.9099,-1.9089,-1.9095,-1.9097,-1.9099,-1.9103,-1.9049,-1.9099,-1.9098,-1.9098,-1.9098,-1.9098,0,-1.9137,-1.9134,-1.9139,-1.914,-1.9145,-1.9131,-1.913,-1.9134,-1.9142,-1.914,-1.9143,-1.9151,-1.9155,-1.9146,-1.9149,-1.9156,-1.915,-1.9158,-1.9158,-1.9158,-1.9112,-1.9108,-1.9163,-1.9163,-1.9163,-1.9163,-1.9163,-1.9163,-1.9166,-1.9181,-1.9175,-1.9189,-1.9185,-1.9194,-1.9195,-1.9195,-1.9194,-1.9203,-1.9207,-1.9201,-1.9197,-1.92,-1.9204,-1.9201,-1.9203,-1.9214,-1.9209,-1.9167,-1.9161,-1.9155,-1.9151,-1.9215,-1.9215,-1.9255,-1.9255,-1.9256]}]]